This is the latest recevied weather packets stored in our database for station/object AA8FM-13. If no packets are shown the sender has not sent any weather packets the latest 10 day(s).
| Time | Temp. | Humidity | Pressure | Rain* | Wind** | Luminosity | Snow |
|---|---|---|---|---|---|---|---|
| 1778158176 | 9.44° C | 86% | 1011.2 hPa | 0 mm | - | 85 W/m² | - |
| 1778157872 | 9.44° C | 84% | 1011.5 hPa | 0 mm | - | 64 W/m² | - |
| 1778157571 | 10° C | 84% | 1011.5 hPa | 0 mm | - | 87 W/m² | - |
| 1778157268 | 10° C | 85% | 1011.5 hPa | 0 mm | - | 88 W/m² | - |
| 1778156963 | 9.44° C | 85% | 1011.5 hPa | 0 mm | - | 99 W/m² | - |
| 1778156653 | 9.44° C | 85% | 1011.3 hPa | 0 mm | - | 73 W/m² | - |
| 1778156350 | 9.44° C | 86% | 1011.6 hPa | 0 mm | - | 84 W/m² | - |
| 1778156045 | 9.44° C | 86% | 1011.4 hPa | 0 mm | - | 85 W/m² | - |
| 1778155742 | 9.44° C | 86% | 1011.5 hPa | 0 mm | - | 79 W/m² | - |
| 1778155439 | 9.44° C | 87% | 1011.5 hPa | 0 mm | - | 75 W/m² | - |
| 1778155135 | 9.44° C | 86% | 1011.2 hPa | 0 mm | - | 67 W/m² | - |
| 1778154831 | 9.44° C | 89% | 1011.3 hPa | 0 mm | - | 64 W/m² | - |
| 1778154527 | 8.89° C | 90% | 1011 hPa | 0 mm | - | 62 W/m² | - |
| 1778154224 | 8.89° C | 92% | 1011.2 hPa | 0 mm | - | 54 W/m² | - |
| 1778153921 | 8.89° C | 94% | 1011.3 hPa | 0 mm | - | 47 W/m² | - |
| 1778153618 | 8.89° C | 95% | 1011 hPa | 0 mm | - | 43 W/m² | - |
| 1778153316 | 8.89° C | 96% | 1011.2 hPa | 0 mm | - | 37 W/m² | - |
| 1778153012 | 8.89° C | 96% | 1010.8 hPa | 0 mm | - | 32 W/m² | - |
| 1778152711 | 8.89° C | 95% | 1010.9 hPa | 0 mm | - | 28 W/m² | - |
| 1778152407 | 8.33° C | 96% | 1010.9 hPa | 0 mm | - | 25 W/m² | - |
| 1778152103 | 8.33° C | 95% | 1010.6 hPa | 0 mm | - | 23 W/m² | - |
| 1778151799 | 8.33° C | 95% | 1010.8 hPa | 0 mm | - | 20 W/m² | - |
| 1778151496 | 8.33° C | 95% | 1010.9 hPa | 0 mm | - | 17 W/m² | - |
| 1778151193 | 8.33° C | 95% | 1010.6 hPa | 0 mm | - | 16 W/m² | - |
| 1778150890 | 7.78° C | 94% | 1010.7 hPa | 0 mm | - | 16 W/m² | - |
* Rain latest hour (hover to see other rain measurements)
** Current wind speed in m/s (hover to see current wind gust speed)